TimeMST,TemperatureF,Dew PointF,Humidity,Sea Level PressureIn,VisibilityMPH,Wind Direction,Wind SpeedMPH,Gust SpeedMPH,PrecipitationIn,Events,Conditions,WindDirDegrees,DateUTC
12:53 AM,25.0,18.0,75,30.08,10.0,ENE,4.6,-,N/A,,Clear,70,2012-12-06 07:53:00
1:53 AM,28.0,19.0,69,30.04,10.0,NNE,4.6,-,N/A,,Clear,30,2012-12-06 08:53:00
2:53 AM,24.1,17.1,75,30.05,10.0,Calm,Calm,-,N/A,,Clear,0,2012-12-06 09:53:00
3:53 AM,21.9,16.0,78,30.05,10.0,East,3.5,-,N/A,,Clear,100,2012-12-06 10:53:00
4:53 AM,27.0,19.0,72,30.05,10.0,Calm,Calm,-,N/A,,Clear,0,2012-12-06 11:53:00
5:53 AM,23.0,18.0,81,30.09,10.0,Calm,Calm,-,N/A,,Clear,0,2012-12-06 12:53:00
6:53 AM,21.9,18.0,85,30.11,10.0,East,3.5,-,N/A,,Clear,100,2012-12-06 13:53:00
7:53 AM,24.1,18.0,77,30.12,10.0,ENE,4.6,-,N/A,,Clear,70,2012-12-06 14:53:00
8:53 AM,30.0,21.0,69,30.11,10.0,Calm,Calm,-,N/A,,Clear,0,2012-12-06 15:53:00
9:53 AM,36.0,21.9,57,30.09,10.0,SE,3.5,-,N/A,,Clear,140,2012-12-06 16:53:00
10:53 AM,42.1,23.0,47,30.04,10.0,Calm,Calm,-,N/A,,Clear,0,2012-12-06 17:53:00
11:53 AM,46.9,21.9,37,30.00,10.0,Calm,Calm,-,N/A,,Mostly Cloudy,0,2012-12-06 18:53:00
12:53 PM,51.1,21.9,32,29.98,10.0,WSW,8.1,-,N/A,,Mostly Cloudy,250,2012-12-06 19:53:00
1:53 PM,51.1,21.9,32,29.94,10.0,SSW,4.6,-,N/A,,Overcast,200,2012-12-06 20:53:00
2:53 PM,51.1,21.9,32,29.95,10.0,SSW,9.2,-,N/A,,Mostly Cloudy,200,2012-12-06 21:53:00
3:53 PM,51.1,21.9,32,29.95,10.0,SSW,11.5,17.3,N/A,,Clear,210,2012-12-06 22:53:00
4:53 PM,46.0,21.9,39,29.95,10.0,WSW,5.8,-,N/A,,Overcast,240,2012-12-06 23:53:00
5:53 PM,42.1,21.0,43,30.00,10.0,SW,5.8,-,N/A,,Clear,230,2012-12-07 00:53:00
6:53 PM,39.9,21.0,47,30.03,10.0,Calm,Calm,-,N/A,,Clear,0,2012-12-07 01:53:00
7:53 PM,35.1,21.0,57,30.05,10.0,North,5.8,-,N/A,,Clear,350,2012-12-07 02:53:00
8:53 PM,32.0,19.9,61,30.04,10.0,North,5.8,-,N/A,,Clear,10,2012-12-07 03:53:00
9:53 PM,28.0,19.0,69,30.03,10.0,NNW,4.6,-,N/A,,Clear,340,2012-12-07 04:53:00
10:53 PM,26.1,19.0,75,30.01,10.0,Calm,Calm,-,N/A,,Clear,0,2012-12-07 05:53:00
11:53 PM,23.0,17.1,78,30.01,10.0,NNE,5.8,-,N/A,,Clear,20,2012-12-07 06:53:00